| time (UTC) | temp C | wind direction | speed KPH | gust KPH | rain 1hr cm | rain 24hr cm | rain mn cm | humidity % | barometer mb |
| 20260506210352 | 13 | 0 | 0.0 | 0.0 | 16.31 | 4.70 | 0.00 | 81 | 1011.7 |
| 20260506205852 | 13 | 0 | 0.0 | 0.0 | 15.11 | 3.81 | 0.00 | 81 | 1011.6 |
| 20260506205352 | 13 | 0 | 0.0 | 0.0 | 15.90 | 2.41 | 0.00 | 81 | 1011.4 |
| 20260506204852 | 13 | 0 | 0.0 | 0.0 | 15.16 | 0.36 | 0.00 | 81 | 1011.3 |
| 20260506204352 | 13 | 0 | 0.0 | 0.0 | 14.61 | 22.76 | 0.00 | 81 | 1011.6 |
| 20260506203852 | 13 | 0 | 0.0 | 0.0 | 15.42 | 21.36 | 0.00 | 81 | 1011.6 |
| 20260506203352 | 13 | 0 | 0.0 | 0.0 | 14.33 | 20.12 | 0.00 | 81 | 1011.5 |
| 20260506202852 | 13 | 0 | 0.0 | 0.0 | 14.50 | 19.08 | 0.00 | 81 | 1011.4 |
| 20260506202352 | 13 | 0 | 0.0 | 0.0 | 14.27 | 17.93 | 0.00 | 81 | 1011.5 |
| 20260506201852 | 13 | 0 | 0.0 | 0.0 | 12.73 | 16.13 | 0.00 | 81 | 1011.2 |
| 20260506201352 | 13 | 0 | 0.0 | 0.0 | 12.93 | 4.45 | 0.00 | 81 | 1011.1 |
| 20260506200852 | 13 | 0 | 0.0 | 0.0 | 13.51 | 3.91 | 0.00 | 81 | 1011.0 |
| 20260506200353 | 13 | 0 | 0.0 | 0.0 | 13.87 | 2.51 | 0.00 | 81 | 1011.0 |
| 20260506195852 | 14 | 0 | 0.0 | 0.0 | 12.22 | 0.51 | 0.00 | 81 | 1010.9 |
| 20260506195352 | 14 | 0 | 0.0 | 0.0 | 14.38 | 23.27 | 0.00 | 80 | 1011.0 |
| 20260506194852 | 14 | 0 | 0.0 | 0.0 | 14.07 | 21.82 | 0.00 | 80 | 1010.9 |
| 20260506194352 | 14 | 0 | 0.0 | 0.0 | 14.86 | 21.46 | 0.00 | 80 | 1010.8 |
| 20260506193852 | 14 | 0 | 0.0 | 0.0 | 14.43 | 19.74 | 0.00 | 80 | 1010.7 |
| 20260506193352 | 14 | 0 | 0.0 | 0.0 | 16.41 | 19.18 | 0.00 | 80 | 1010.6 |
| 20260506192852 | 14 | 0 | 0.0 | 0.0 | 15.32 | 17.53 | 0.00 | 80 | 1010.5 |
| 20260506192352 | 14 | 0 | 0.0 | 0.0 | 15.57 | 16.74 | 0.00 | 80 | 1010.3 |
| 20260506191852 | 15 | 0 | 0.0 | 0.0 | 19.79 | 15.44 | 0.00 | 80 | 1010.4 |
| 20260506191352 | 15 | 0 | 0.0 | 0.0 | 19.00 | 4.70 | 0.00 | 80 | 1010.2 |
| 20260506190852 | 15 | 0 | 0.0 | 0.0 | 20.09 | 4.70 | 0.00 | 80 | 1010.0 |
| 20260506190352 | 15 | 0 | 0.0 | 0.0 | 20.40 | 4.70 | 0.00 | 80 | 1009.9 |
| 20260506185852 | 15 | 0 | 0.0 | 0.0 | 24.49 | 4.70 | 0.00 | 80 | 1009.7 |
| 20260506185352 | 15 | 0 | 0.0 | 0.0 | 23.98 | 4.39 | 0.00 | 80 | 1009.7 |
| 20260506184852 | 15 | 0 | 0.0 | 0.0 | 24.79 | 3.25 | 0.00 | 79 | 1009.4 |
| 20260506184352 | 15 | 0 | 0.0 | 0.0 | 24.28 | 1.70 | 0.00 | 79 | 1009.3 |
| 20260506183852 | 15 | 0 | 0.0 | 0.0 | 24.28 | 22.76 | 0.00 | 78 | 1009.2 |
| 20260506183352 | 15 | 0 | 0.0 | 0.0 | 3.91 | 22.66 | 0.00 | 78 | 1009.0 |
| 20260506182852 | 15 | 0 | 0.0 | 0.0 | 4.90 | 21.18 | 0.00 | 77 | 1009.1 |
| 20260506182352 | 16 | 0 | 0.0 | 0.0 | 4.83 | 19.68 | 0.00 | 76 | 1009.0 |
| 20260506181852 | 16 | 0 | 0.0 | 0.0 | 3.71 | 15.54 | 0.00 | 77 | 1008.9 |
| 20260506181352 | 16 | 0 | 0.0 | 0.0 | 7.85 | 4.70 | 0.00 | 77 | 1009.0 |
| 20260506180852 | 16 | 0 | 0.0 | 0.0 | 8.81 | 4.70 | 0.00 | 76 | 1008.7 |
| 20260506180352 | 16 | 0 | 0.0 | 0.0 | 7.59 | 4.70 | 0.00 | 76 | 1008.8 |
| 20260506175852 | 16 | 0 | 0.0 | 0.0 | 3.56 | 4.70 | 0.00 | 75 | 1008.8 |
| 20260506175352 | 16 | 0 | 0.0 | 0.0 | 6.07 | 4.70 | 0.00 | 75 | 1008.6 |
| 20260506174852 | 16 | 0 | 0.0 | 0.0 | 7.75 | 4.70 | 0.00 | 76 | 1008.4 |
| 20260506174352 | 16 | 0 | 0.0 | 0.0 | 5.61 | 4.70 | 0.00 | 76 | 1008.1 |
| 20260506173852 | 16 | 0 | 0.0 | 0.0 | 4.37 | 4.70 | 0.00 | 77 | 1008.3 |
| 20260506173352 | 16 | 0 | 0.0 | 0.0 | 5.31 | 0.86 | 0.00 | 77 | 1008.3 |
| 20260506172852 | 16 | 0 | 0.0 | 0.0 | 5.66 | 0.03 | 0.00 | 77 | 1008.2 |
| 20260506172352 | 16 | 0 | 0.0 | 0.0 | 5.87 | 20.88 | 0.00 | 77 | 1008.4 |
| 20260506171852 | 16 | 0 | 0.0 | 0.0 | 3.33 | 16.38 | 0.00 | 77 | 1008.2 |
| 20260506171352 | 16 | 0 | 0.0 | 0.0 | 4.06 | 4.70 | 0.00 | 78 | 1008.3 |
| 20260506170852 | 16 | 0 | 0.0 | 0.0 | 4.27 | 4.70 | 0.00 | 78 | 1008.3 |
| 20260506170352 | 16 | 0 | 0.0 | 0.0 | 4.67 | 4.70 | 0.00 | 79 | 1008.4 |
| 20260506165852 | 16 | 0 | 0.0 | 0.0 | 3.71 | 4.70 | 0.00 | 80 | 1008.2 |
| 20260506165352 | 16 | 0 | 0.0 | 0.0 | 4.90 | 4.70 | 0.00 | 80 | 1008.3 |
| 20260506164852 | 16 | 0 | 0.0 | 0.0 | 4.90 | 4.70 | 0.00 | 80 | 1008.2 |
| 20260506164352 | 16 | 0 | 0.0 | 0.0 | 6.55 | 4.70 | 0.00 | 80 | 1008.1 |
| 20260506163852 | 16 | 0 | 0.0 | 0.0 | 5.16 | 4.70 | 0.00 | 80 | 1008.3 |
| 20260506163353 | 16 | 0 | 0.0 | 0.0 | 3.02 | 0.30 | 0.00 | 81 | 1008.3 |
| 20260506162853 | 16 | 0 | 0.0 | 0.0 | 2.08 | 20.98 | 0.00 | 81 | 1008.2 |
| 20260506162353 | 16 | 0 | 0.0 | 0.0 | 2.82 | 19.18 | 0.00 | 82 | 1008.2 |
| 20260506161853 | 16 | 0 | 0.0 | 0.0 | 2.92 | 17.04 | 0.00 | 83 | 1008.2 |
| 20260506161352 | 16 | 0 | 0.0 | 0.0 | 4.57 | 4.70 | 0.00 | 84 | 1007.9 |
| 20260506160853 | 16 | 0 | 0.0 | 0.0 | 0.69 | 4.70 | 0.00 | 85 | 1007.9 |
| 20260506160352 | 16 | 0 | 0.0 | 0.0 | 2.26 | 4.70 | 0.00 | 85 | 1008.1 |
| 20260506155853 | 16 | 0 | 0.0 | 0.0 | 0.84 | 4.70 | 0.00 | 85 | 1008.3 |
| 20260506155353 | 15 | 0 | 0.0 | 0.0 | 2.72 | 4.70 | 0.00 | 85 | 1008.3 |
| 20260506154853 | 15 | 0 | 0.0 | 0.0 | 25.27 | 4.70 | 0.00 | 86 | 1008.4 |
| 20260506154353 | 15 | 0 | 0.0 | 0.0 | 0.69 | 4.70 | 0.00 | 86 | 1008.4 |
| 20260506153853 | 15 | 0 | 0.0 | 0.0 | 0.13 | 3.25 | 0.00 | 85 | 1008.6 |
| 20260506153353 | 15 | 0 | 0.0 | 0.0 | 0.84 | 0.86 | 0.00 | 85 | 1008.5 |
| 20260506152853 | 15 | 0 | 0.0 | 0.0 | 24.94 | 21.97 | 0.00 | 85 | 1008.7 |
| 20260506152353 | 15 | 0 | 0.0 | 0.0 | 24.79 | 20.68 | 0.00 | 86 | 1008.9 |
| 20260506151853 | 14 | 0 | 0.0 | 0.0 | 24.03 | 17.25 | 0.00 | 86 | 1008.8 |
| 20260506151353 | 14 | 0 | 0.0 | 0.0 | 22.68 | 4.70 | 0.00 | 86 | 1008.9 |
| 20260506150853 | 14 | 0 | 0.0 | 0.0 | 21.95 | 4.70 | 0.00 | 86 | 1009.1 |
| 20260506150353 | 14 | 0 | 0.0 | 0.0 | 20.24 | 4.70 | 0.00 | 86 | 1008.8 |
| 20260506145853 | 14 | 0 | 0.0 | 0.0 | 18.06 | 4.70 | 0.00 | 86 | 1008.9 |
| 20260506145353 | 14 | 0 | 0.0 | 0.0 | 20.35 | 4.70 | 0.00 | 86 | 1009.0 |
| 20260506144853 | 13 | 0 | 0.0 | 0.0 | 18.21 | 2.36 | 0.00 | 86 | 1009.0 |
| 20260506144353 | 14 | 0 | 0.0 | 0.0 | 17.91 | 0.97 | 0.00 | 86 | 1009.1 |
| 20260506143853 | 14 | 0 | 0.0 | 0.0 | 16.26 | 21.87 | 0.00 | 86 | 1009.1 |
| 20260506143353 | 13 | 0 | 0.0 | 0.0 | 17.14 | 21.08 | 0.00 | 86 | 1009.1 |
| 20260506142853 | 14 | 0 | 0.0 | 0.0 | 17.02 | 19.43 | 0.00 | 86 | 1009.3 |
| 20260506142353 | 13 | 0 | 0.0 | 0.0 | 15.90 | 18.08 | 0.00 | 86 | 1009.4 |
| 20260506141853 | 13 | 0 | 0.0 | 0.0 | 15.85 | 16.28 | 0.00 | 86 | 1009.4 |
| 20260506141353 | 13 | 0 | 0.0 | 0.0 | 15.80 | 4.70 | 0.00 | 86 | 1009.5 |
| 20260506140853 | 13 | 0 | 0.0 | 0.0 | 16.41 | 4.70 | 0.00 | 86 | 1009.4 |
| 20260506140353 | 13 | 0 | 0.0 | 0.0 | 15.57 | 4.70 | 0.00 | 86 | 1009.5 |
| 20260506135853 | 13 | 0 | 0.0 | 0.0 | 13.56 | 1.85 | 0.00 | 86 | 1009.3 |
| 20260506135353 | 13 | 0 | 0.0 | 0.0 | 13.61 | 0.81 | 0.00 | 86 | 1009.4 |
| 20260506134853 | 13 | 0 | 0.0 | 0.0 | 13.61 | 23.52 | 0.00 | 86 | 1009.3 |
| 20260506134353 | 13 | 0 | 0.0 | 0.0 | 12.88 | 22.53 | 0.00 | 85 | 1009.5 |
| 20260506133853 | 13 | 0 | 0.0 | 0.0 | 12.47 | 21.18 | 0.00 | 85 | 1009.7 |
| 20260506133353 | 13 | 0 | 0.0 | 0.0 | 12.32 | 20.17 | 0.00 | 85 | 1009.7 |
| 20260506132353 | 12 | 0 | 0.0 | 0.0 | 11.58 | 18.24 | 0.00 | 84 | 1009.7 |
| 20260506131853 | 12 | 0 | 0.0 | 0.0 | 10.44 | 16.28 | 0.00 | 84 | 1009.7 |
| 20260506131353 | 12 | 0 | 0.0 | 0.0 | 10.49 | 4.60 | 0.00 | 84 | 1009.8 |
| 20260506130853 | 12 | 0 | 0.0 | 0.0 | 9.37 | 3.05 | 0.00 | 84 | 1009.8 |
| 20260506130353 | 12 | 0 | 0.0 | 0.0 | 8.99 | 2.46 | 0.00 | 84 | 1009.8 |
| 20260506125853 | 12 | 0 | 0.0 | 0.0 | 8.99 | 1.50 | 0.00 | 84 | 1009.7 |
| 20260506125353 | 12 | 0 | 0.0 | 0.0 | 8.69 | 0.41 | 0.00 | 84 | 1009.6 |
| 20260506124853 | 12 | 0 | 0.0 | 0.0 | 8.03 | 23.06 | 0.00 | 83 | 1009.5 |
| 20260506124353 | 12 | 0 | 0.0 | 0.0 | 8.79 | 22.07 | 0.00 | 83 | 1009.5 |
| 20260506123853 | 12 | 0 | 0.0 | 0.0 | 7.92 | 21.18 | 0.00 | 83 | 1009.4 |
| 20260506123353 | 12 | 0 | 0.0 | 0.0 | 9.42 | 20.73 | 0.00 | 83 | 1009.4 |
| 20260506122853 | 12 | 0 | 0.0 | 0.0 | 9.37 | 20.12 | 0.00 | 83 | 1009.3 |
| 20260506122353 | 12 | 0 | 0.0 | 0.0 | 10.08 | 19.43 | 0.00 | 83 | 1009.1 |
| 20260506121853 | 12 | 0 | 0.0 | 0.0 | 12.37 | 18.03 | 0.00 | 84 | 1009.2 |
| 20260506121353 | 12 | 0 | 0.0 | 0.0 | 12.93 | 2.16 | 0.00 | 84 | 1009.4 |
| 20260506120905 | 12 | 0 | 0.0 | 0.0 | 15.01 | 1.96 | 0.00 | 84 | 1009.3 |
| 20260506115853 | 12 | 0 | 0.0 | 0.0 | 16.76 | 0.99 | 0.00 | 84 | 1008.8 |
| 20260506115353 | 13 | 0 | 0.0 | 0.0 | 19.41 | 4.75 | 0.00 | 84 | 1008.6 |
| 20260506114853 | 13 | 0 | 0.0 | 0.0 | 21.84 | 3.76 | 0.00 | 84 | 1008.5 |
| 20260506113353 | 13 | 0 | 0.0 | 0.0 | 1.32 | 0.86 | 0.00 | 84 | 1007.7 |
| 20260506112853 | 13 | 0 | 0.0 | 0.0 | 1.93 | 23.47 | 0.00 | 84 | 1007.6 |
| 20260506112353 | 13 | 0 | 0.0 | 0.0 | 2.18 | 21.82 | 0.00 | 84 | 1007.6 |
| 20260506111853 | 13 | 0 | 0.0 | 0.0 | 1.32 | 19.02 | 0.00 | 84 | 1007.7 |
| 20260506111353 | 13 | 0 | 0.0 | 0.0 | 4.72 | 2.44 | 0.00 | 85 | 1007.8 |
| 20260506110853 | 13 | 0 | 0.0 | 0.0 | 3.81 | 2.44 | 0.00 | 84 | 1007.7 |
| 20260506110353 | 13 | 0 | 0.0 | 0.0 | 3.66 | 2.44 | 0.00 | 84 | 1007.6 |
| 20260506105853 | 13 | 0 | 0.0 | 0.0 | 8.51 | 2.44 | 0.00 | 85 | 1007.4 |
| 20260506105353 | 13 | 0 | 0.0 | 0.0 | 6.50 | 2.44 | 0.00 | 85 | 1007.3 |
| 20260506104853 | 13 | 0 | 0.0 | 0.0 | 5.87 | 2.44 | 0.00 | 85 | 1007.7 |
| 20260506104353 | 13 | 0 | 0.0 | 0.0 | 5.41 | 2.44 | 0.00 | 85 | 1007.8 |
| 20260506103853 | 14 | 0 | 0.0 | 0.0 | 5.61 | 2.44 | 0.00 | 85 | 1008.0 |
| 20260506103353 | 14 | 0 | 0.0 | 0.0 | 7.90 | 0.15 | 0.00 | 85 | 1007.8 |
| 20260506102853 | 14 | 0 | 0.0 | 0.0 | 8.31 | 3.15 | 0.00 | 85 | 1007.9 |
| 20260506102353 | 14 | 0 | 0.0 | 0.0 | 8.61 | 1.22 | 0.00 | 85 | 1007.9 |
| 20260506101853 | 14 | 0 | 0.0 | 0.0 | 6.30 | 20.57 | 0.00 | 85 | 1007.8 |
| 20260506101353 | 14 | 0 | 0.0 | 0.0 | 6.55 | 2.44 | 0.00 | 85 | 1007.9 |
| 20260506100853 | 14 | 0 | 0.0 | 0.0 | 8.15 | 2.44 | 0.00 | 85 | 1007.9 |
| 20260506100353 | 14 | 0 | 0.0 | 0.0 | 8.56 | 2.44 | 0.00 | 85 | 1007.8 |
| 20260506095853 | 14 | 0 | 0.0 | 0.0 | 4.42 | 2.44 | 0.00 | 85 | 1007.8 |
| 20260506095353 | 14 | 0 | 0.0 | 0.0 | 8.51 | 2.44 | 0.00 | 85 | 1007.7 |
| 20260506094853 | 14 | 0 | 0.0 | 0.0 | 8.76 | 2.44 | 0.00 | 85 | 1007.6 |
| 20260506094353 | 14 | 0 | 0.0 | 0.0 | 9.80 | 2.44 | 0.00 | 85 | 1007.6 |
| 20260506093853 | 14 | 0 | 0.0 | 0.0 | 7.54 | 0.99 | 0.00 | 85 | 1007.5 |
| 20260506093353 | 14 | 0 | 0.0 | 0.0 | 8.05 | 3.66 | 0.00 | 85 | 1007.5 |
| 20260506092853 | 14 | 0 | 0.0 | 0.0 | 6.71 | 22.96 | 0.00 | 85 | 1007.6 |
| 20260506092353 | 14 | 0 | 0.0 | 0.0 | 7.85 | 21.41 | 0.00 | 85 | 1007.6 |
| 20260506091853 | 14 | 0 | 0.0 | 0.0 | 6.07 | 18.39 | 0.00 | 85 | 1007.5 |
| 20260506091353 | 14 | 0 | 0.0 | 0.0 | 6.35 | 2.44 | 0.00 | 85 | 1007.6 |
| 20260506090853 | 14 | 0 | 0.0 | 0.0 | 4.90 | 2.44 | 0.00 | 85 | 1007.4 |
| 20260506090353 | 14 | 0 | 0.0 | 0.0 | 7.80 | 2.44 | 0.00 | 85 | 1007.4 |
| 20260506085853 | 14 | 0 | 0.0 | 0.0 | 5.11 | 2.44 | 0.00 | 86 | 1007.3 |
| 20260506085353 | 14 | 0 | 0.0 | 0.0 | 4.83 | 2.44 | 0.00 | 86 | 1007.4 |
| 20260506084853 | 14 | 0 | 0.0 | 0.0 | 1.83 | 2.44 | 0.00 | 86 | 1007.5 |
| 20260506084353 | 14 | 0 | 0.0 | 0.0 | 2.13 | 2.16 | 0.00 | 87 | 1007.6 |
| 20260506083853 | 14 | 0 | 0.0 | 0.0 | 1.68 | 4.80 | 0.00 | 87 | 1007.5 |
| 20260506083353 | 14 | 0 | 0.0 | 0.0 | 3.07 | 3.10 | 0.00 | 87 | 1007.4 |
| 20260506082853 | 14 | 0 | 0.0 | 0.0 | 25.27 | 22.48 | 0.00 | 86 | 1007.4 |
| 20260506082353 | 14 | 0 | 0.0 | 0.0 | 25.07 | 20.93 | 0.00 | 86 | 1007.4 |
| 20260506081853 | 14 | 0 | 0.0 | 0.0 | 1.22 | 18.49 | 0.00 | 86 | 1007.5 |
| 20260506081353 | 13 | 0 | 0.0 | 0.0 | 2.26 | 2.44 | 0.00 | 85 | 1007.6 |
| 20260506080853 | 13 | 0 | 0.0 | 0.0 | 0.48 | 2.44 | 0.00 | 84 | 1007.6 |
| 20260506080353 | 13 | 0 | 0.0 | 0.0 | 25.32 | 2.44 | 0.00 | 84 | 1007.7 |
| 20260506073353 | 13 | 0 | 0.0 | 0.0 | 24.38 | 2.90 | 0.00 | 84 | 1008.1 |
| 20260506072853 | 13 | 0 | 0.0 | 0.0 | 23.34 | 1.02 | 0.00 | 84 | 1008.1 |
| 20260506072353 | 13 | 0 | 0.0 | 0.0 | 21.59 | 21.41 | 0.00 | 84 | 1008.3 |
| 20260506071853 | 13 | 0 | 0.0 | 0.0 | 20.90 | 19.13 | 0.00 | 84 | 1008.3 |
| 20260506071353 | 13 | 0 | 0.0 | 0.0 | 21.59 | 2.44 | 0.00 | 84 | 1008.2 |
| 20260506070853 | 13 | 0 | 0.0 | 0.0 | 21.54 | 2.44 | 0.00 | 84 | 1008.2 |
| 20260506070353 | 13 | 0 | 0.0 | 0.0 | 20.80 | 2.44 | 0.00 | 85 | 1008.1 |
| 20260506062353 | 13 | 0 | 0.0 | 0.0 | 15.85 | 20.42 | 0.00 | 84 | 1008.2 |
| 20260506061853 | 13 | 0 | 0.0 | 0.0 | 15.37 | 19.02 | 0.00 | 84 | 1008.2 |
| 20260506061353 | 13 | 0 | 0.0 | 0.0 | 15.62 | 2.44 | 0.00 | 84 | 1008.1 |
| 20260506060853 | 13 | 0 | 0.0 | 0.0 | 14.86 | 2.44 | 0.00 | 83 | 1008.2 |
| 20260506060353 | 13 | 0 | 0.0 | 0.0 | 15.47 | 2.44 | 0.00 | 83 | 1008.3 |
| 20260506051354 | 13 | 0 | 0.0 | 0.0 | 22.99 | 2.44 | 0.00 | 82 | 1009.0 |
| 20260506050854 | 13 | 0 | 0.0 | 0.0 | 22.05 | 2.44 | 0.00 | 82 | 1009.1 |
| 20260506050354 | 13 | 0 | 0.0 | 0.0 | 23.98 | 2.44 | 0.00 | 82 | 1009.0 |
| 20260506044854 | 13 | 0 | 0.0 | 0.0 | 23.04 | 0.61 | 0.00 | 82 | 1009.2 |
| 20260506044354 | 13 | 0 | 0.0 | 0.0 | 23.39 | 3.96 | 0.00 | 82 | 1009.0 |
| 20260506043854 | 13 | 0 | 0.0 | 0.0 | 24.23 | 2.41 | 0.00 | 82 | 1009.0 |
| 20260506043354 | 13 | 0 | 0.0 | 0.0 | 1.07 | 0.56 | 0.00 | 82 | 1009.1 |
| 20260506042854 | 13 | 0 | 0.0 | 0.0 | 2.51 | 0.13 | 0.00 | 82 | 1009.2 |
| 20260506042354 | 13 | 0 | 0.0 | 0.0 | 1.98 | 22.23 | 0.00 | 82 | 1009.2 |
| 20260506041854 | 13 | 0 | 0.0 | 0.0 | 1.57 | 19.18 | 0.00 | 82 | 1009.4 |
| 20260506041354 | 13 | 0 | 0.0 | 0.0 | 5.36 | 2.44 | 0.00 | 81 | 1009.3 |
| 20260506040854 | 13 | 0 | 0.0 | 0.0 | 5.97 | 2.44 | 0.00 | 81 | 1009.4 |
| 20260506040354 | 13 | 0 | 0.0 | 0.0 | 6.96 | 2.44 | 0.00 | 81 | 1009.4 |
| 20260506035854 | 13 | 0 | 0.0 | 0.0 | 5.51 | 2.44 | 0.00 | 81 | 1009.4 |
| 20260506035354 | 13 | 0 | 0.0 | 0.0 | 8.61 | 2.44 | 0.00 | 81 | 1009.5 |
| 20260506034854 | 13 | 0 | 0.0 | 0.0 | 9.55 | 2.44 | 0.00 | 81 | 1009.4 |
| 20260506034354 | 13 | 0 | 0.0 | 0.0 | 9.19 | 2.44 | 0.00 | 81 | 1009.5 |
| 20260506033854 | 13 | 0 | 0.0 | 0.0 | 7.21 | 2.44 | 0.00 | 81 | 1009.5 |
| 20260506033354 | 13 | 0 | 0.0 | 0.0 | 9.40 | 0.00 | 0.00 | 80 | 1009.4 |
| 20260506032854 | 13 | 0 | 0.0 | 0.0 | 9.60 | 2.16 | 0.00 | 80 | 1009.5 |
| 20260506032354 | 13 | 0 | 0.0 | 0.0 | 10.06 | 0.66 | 0.00 | 80 | 1009.7 |
| 20260506031854 | 13 | 0 | 0.0 | 0.0 | 6.12 | 19.63 | 0.00 | 80 | 1009.7 |
| 20260506031354 | 13 | 0 | 0.0 | 0.0 | 6.86 | 2.44 | 0.00 | 80 | 1009.7 |
| 20260506030854 | 13 | 0 | 0.0 | 0.0 | 6.65 | 2.44 | 0.00 | 80 | 1009.8 |
| 20260506030354 | 13 | 0 | 0.0 | 0.0 | 6.45 | 2.44 | 0.00 | 80 | 1009.9 |
| 20260506025854 | 13 | 0 | 0.0 | 0.0 | 0.33 | 2.44 | 0.00 | 80 | 1010.0 |
| 20260506025354 | 13 | 0 | 0.0 | 0.0 | 5.61 | 2.44 | 0.00 | 80 | 1010.1 |
| 20260506024854 | 13 | 0 | 0.0 | 0.0 | 4.72 | 2.44 | 0.00 | 80 | 1010.0 |
| 20260506024354 | 13 | 0 | 0.0 | 0.0 | 4.95 | 2.44 | 0.00 | 80 | 1010.2 |
| 20260506023854 | 13 | 0 | 0.0 | 0.0 | 3.71 | 1.35 | 0.00 | 80 | 1010.2 |
| 20260506023354 | 13 | 0 | 0.0 | 0.0 | 3.71 | 3.30 | 0.00 | 80 | 1010.2 |
| 20260506022854 | 13 | 0 | 0.0 | 0.0 | 1.27 | 23.42 | 0.00 | 80 | 1010.3 |
| 20260506022354 | 13 | 0 | 0.0 | 0.0 | 1.47 | 22.28 | 0.00 | 80 | 1010.4 |
| 20260506021854 | 13 | 0 | 0.0 | 0.0 | 24.28 | 19.33 | 0.00 | 80 | 1010.4 |
| 20260506021354 | 13 | 0 | 0.0 | 0.0 | 1.73 | 2.44 | 0.00 | 80 | 1010.4 |
| 20260506020854 | 13 | 0 | 0.0 | 0.0 | 0.58 | 2.44 | 0.00 | 80 | 1010.5 |
| 20260506020354 | 13 | 0 | 0.0 | 0.0 | 2.51 | 2.44 | 0.00 | 80 | 1010.7 |
| 20260506015854 | 13 | 0 | 0.0 | 0.0 | 24.74 | 2.44 | 0.00 | 80 | 1010.7 |
| 20260506015354 | 13 | 0 | 0.0 | 0.0 | 3.76 | 2.44 | 0.00 | 80 | 1010.7 |
| 20260506014854 | 13 | 0 | 0.0 | 0.0 | 6.07 | 2.39 | 0.00 | 80 | 1010.6 |
| 20260506014354 | 13 | 0 | 0.0 | 0.0 | 8.05 | 0.61 | 0.00 | 80 | 1010.6 |
| 20260506013854 | 13 | 0 | 0.0 | 0.0 | 7.06 | 3.10 | 0.00 | 80 | 1010.6 |
| 20260506013354 | 13 | 0 | 0.0 | 0.0 | 9.50 | 1.75 | 0.00 | 80 | 1010.6 |
| 20260506012854 | 13 | 0 | 0.0 | 0.0 | 9.40 | 23.42 | 0.00 | 80 | 1010.7 |
| 20260506012354 | 13 | 0 | 0.0 | 0.0 | 12.83 | 22.58 | 0.00 | 80 | 1010.6 |
| 20260506011854 | 13 | 0 | 0.0 | 0.0 | 10.95 | 18.24 | 0.00 | 80 | 1010.8 |
| 20260506011354 | 13 | 0 | 0.0 | 0.0 | 13.03 | 2.44 | 0.00 | 80 | 1010.9 |
| 20260506010854 | 13 | 0 | 0.0 | 0.0 | 11.05 | 2.44 | 0.00 | 80 | 1011.0 |
| 20260506010354 | 13 | 0 | 0.0 | 0.0 | 12.55 | 2.44 | 0.00 | 80 | 1011.0 |
| 20260506005854 | 13 | 0 | 0.0 | 0.0 | 9.96 | 2.44 | 0.00 | 80 | 1011.0 |
| 20260506005354 | 13 | 0 | 0.0 | 0.0 | 13.54 | 2.44 | 0.00 | 80 | 1011.1 |
| 20260506004854 | 13 | 0 | 0.0 | 0.0 | 13.28 | 2.44 | 0.00 | 80 | 1011.1 |
| 20260506004354 | 13 | 0 | 0.0 | 0.0 | 11.73 | 2.44 | 0.00 | 80 | 1011.2 |
| 20260506003854 | 13 | 0 | 0.0 | 0.0 | 10.85 | 2.44 | 0.00 | 80 | 1011.1 |
| 20260506003354 | 13 | 0 | 0.0 | 0.0 | 15.77 | 0.94 | 0.00 | 80 | 1011.2 |
| 20260506002854 | 13 | 0 | 0.0 | 0.0 | 13.89 | 2.21 | 0.00 | 80 | 1011.2 |
| 20260506002354 | 13 | 0 | 0.0 | 0.0 | 12.19 | 22.71 | 0.00 | 79 | 1011.4 |
| 20260506001854 | 13 | 0 | 0.0 | 0.0 | 10.90 | 19.48 | 0.00 | 79 | 1011.4 |
| 20260506001354 | 13 | 0 | 0.0 | 0.0 | 16.48 | 2.44 | 0.00 | 79 | 1011.3 |
| 20260506000854 | 13 | 0 | 0.0 | 0.0 | 14.78 | 2.44 | 0.00 | 79 | 1011.4 |
| 20260506000354 | 13 | 0 | 0.0 | 0.0 | 12.75 | 2.44 | 0.00 | 79 | 1011.4 |
| 20260505235854 | 13 | 0 | 0.0 | 0.0 | 7.85 | 2.44 | 0.00 | 79 | 1011.4 |
| 20260505235354 | 13 | 0 | 0.0 | 0.0 | 10.34 | 2.44 | 0.00 | 79 | 1011.5 |
| 20260505234854 | 13 | 0 | 0.0 | 0.0 | 8.99 | 2.44 | 0.00 | 79 | 1011.7 |
| 20260505234354 | 13 | 0 | 0.0 | 0.0 | 8.56 | 2.44 | 0.00 | 79 | 1011.8 |
| 20260505233854 | 13 | 0 | 0.0 | 0.0 | 4.47 | 1.91 | 0.00 | 79 | 1011.7 |
| 20260505233354 | 13 | 0 | 0.0 | 0.0 | 8.26 | 1.65 | 0.00 | 79 | 1011.7 |
| 20260505232854 | 13 | 0 | 0.0 | 0.0 | 8.15 | 4.39 | 0.00 | 79 | 1011.6 |
| 20260505232354 | 13 | 0 | 0.0 | 0.0 | 7.85 | 2.57 | 0.00 | 79 | 1011.7 |
| 20260505231854 | 13 | 0 | 0.0 | 0.0 | 1.88 | 18.64 | 0.00 | 79 | 1011.9 |
| 20260505231354 | 13 | 0 | 0.0 | 0.0 | 7.16 | 2.44 | 0.00 | 79 | 1012.1 |
| 20260505230854 | 13 | 0 | 0.0 | 0.0 | 5.26 | 2.44 | 0.00 | 79 | 1012.0 |
| 20260505230354 | 13 | 0 | 0.0 | 0.0 | 5.26 | 2.44 | 0.00 | 79 | 1012.0 |
| 20260505225854 | 13 | 0 | 0.0 | 0.0 | 4.47 | 2.44 | 0.00 | 79 | 1012.1 |
| 20260505225354 | 13 | 0 | 0.0 | 0.0 | 2.57 | 2.44 | 0.00 | 79 | 1012.0 |
| 20260505224854 | 13 | 0 | 0.0 | 0.0 | 3.07 | 2.44 | 0.00 | 79 | 1012.1 |
| 20260505224354 | 13 | 0 | 0.0 | 0.0 | 3.33 | 2.44 | 0.00 | 79 | 1012.1 |
| 20260505223854 | 13 | 0 | 0.0 | 0.0 | 1.47 | 2.24 | 0.00 | 79 | 1012.1 |
| 20260505223354 | 13 | 0 | 0.0 | 0.0 | 2.41 | 4.45 | 0.00 | 79 | 1012.1 |
| 20260505222854 | 13 | 0 | 0.0 | 0.0 | 1.42 | 2.72 | 0.00 | 79 | 1012.0 |
| 20260505222354 | 13 | 0 | 0.0 | 0.0 | 2.36 | 1.80 | 0.00 | 79 | 1012.1 |
| 20260505221854 | 13 | 0 | 0.0 | 0.0 | 24.94 | 21.77 | 0.00 | 79 | 1012.3 |
| 20260505221354 | 13 | 0 | 0.0 | 0.0 | 23.60 | 2.44 | 0.00 | 79 | 1012.4 |
| 20260505220854 | 13 | 0 | 0.0 | 0.0 | 23.98 | 2.44 | 0.00 | 79 | 1012.3 |
| 20260505220354 | 13 | 0 | 0.0 | 0.0 | 24.59 | 2.44 | 0.00 | 79 | 1012.5 |
| 20260505215854 | 13 | 0 | 0.0 | 0.0 | 23.19 | 2.44 | 0.00 | 79 | 1012.5 |
| 20260505215354 | 13 | 0 | 0.0 | 0.0 | 1.42 | 2.44 | 0.00 | 79 | 1012.5 |
| 20260505214854 | 13 | 0 | 0.0 | 0.0 | 23.72 | 0.99 | 0.00 | 79 | 1012.6 |
| 20260505214354 | 13 | 0 | 0.0 | 0.0 | 24.18 | 3.81 | 0.00 | 79 | 1012.5 |
| 20260505213854 | 13 | 0 | 0.0 | 0.0 | 24.08 | 2.11 | 0.00 | 79 | 1012.6 |
| 20260505213354 | 13 | 0 | 0.0 | 0.0 | 2.41 | 0.25 | 0.00 | 79 | 1012.6 |
| 20260505212854 | 13 | 0 | 0.0 | 0.0 | 2.08 | 22.23 | 0.00 | 79 | 1012.6 |
| 20260505212355 | 13 | 0 | 0.0 | 0.0 | 1.37 | 20.42 | 0.00 | 79 | 1012.7 |
| 20260505211854 | 13 | 0 | 0.0 | 0.0 | 1.52 | 19.28 | 0.00 | 79 | 1012.9 |
| 20260505211354 | 13 | 0 | 0.0 | 0.0 | 3.86 | 2.44 | 0.00 | 79 | 1012.9 |
| 20260505210855 | 13 | 0 | 0.0 | 0.0 | 4.57 | 2.44 | 0.00 | 79 | 1012.9 |